K6GMW Weather Reports


time (UTC)temp
F
wind
direction
speed
knots
gust
knots
rain 1hr
in
rain 24hr
in
rain mn
in
humidity
%
barometer
mb
20260509201114 82 93 1.7 3.5 0.00 0.01 0.01 74 1010.6
20260509200609 82 32 0.0 6.1 0.00 0.01 0.01 73 1010.9
20260509200105 84 156 3.5 5.2 0.00 0.01 0.01 72 1010.8
20260509195601 85 19 1.7 3.5 0.00 0.01 0.01 70 1010.7
20260509195055 85 8 0.9 4.3 0.00 0.01 0.01 72 1010.7
20260509194555 84 174 1.7 3.5 0.00 0.01 0.01 74 1011.0
20260509194053 82 283 1.7 7.0 0.00 0.01 0.01 78 1011.1
20260509193548 82 218 1.7 5.2 0.00 0.01 0.01 74 1011.3
20260509193045 84 187 2.6 3.5 0.00 0.01 0.01 73 1011.1
20260509192541 83 172 2.6 5.2 0.00 0.01 0.01 72 1011.5
20260509192036 83 158 2.6 3.5 0.00 0.01 0.01 74 1011.3
20260509191531 83 155 4.3 5.2 0.00 0.01 0.01 73 1011.3
20260509191027 82 213 5.2 5.2 0.00 0.01 0.01 77 1011.4
20260509190524 82 147 5.2 9.6 0.00 0.01 0.01 75 1011.3
20260509190022 82 146 1.7 2.6 0.00 0.01 0.01 74 1011.4
20260509185519 81 167 1.7 1.7 0.00 0.01 0.01 74 1011.6
20260509185015 80 0 1.7 6.1 0.00 0.01 0.01 76 1011.5
20260509184514 80 258 2.6 2.6 0.00 0.01 0.01 76 1011.6
20260509184010 80 328 1.7 4.3 0.00 0.01 0.01 77 1011.7
20260509183505 80 341 3.5 5.2 0.00 0.01 0.01 78 1011.7
20260509183001 80 176 1.7 4.3 0.00 0.01 0.01 78 1011.6
20260509182458 81 169 1.7 5.2 0.00 0.01 0.01 80 1011.7
20260509181955 80 346 1.7 3.5 0.00 0.01 0.01 81 1011.7
20260509181453 79 315 1.7 3.5 0.00 0.01 0.01 81 1011.8
20260509180950 79 338 2.6 4.3 0.00 0.01 0.01 80 1011.9
20260509180445 78 299 1.7 2.6 0.00 0.01 0.01 82 1011.8
20260509175943 78 237 0.9 0.9 0.00 0.01 0.01 82 1012.1
20260509175439 78 86 1.7 1.7 0.00 0.01 0.01 82 1012.0
20260509174935 78 224 2.6 2.6 0.00 0.01 0.01 83 1012.1
20260509174432 78 309 1.7 2.6 0.00 0.01 0.01 82 1012.1
20260509173927 78 236 1.7 3.5 0.00 0.01 0.01 81 1012.1
20260509173427 79 310 2.6 3.5 0.00 0.01 0.01 79 1012.1
20260509172924 79 234 0.9 2.6 0.00 0.01 0.01 80 1012.2
20260509172421 80 182 1.7 2.6 0.00 0.01 0.01 82 1012.1
20260509171916 80 161 2.6 2.6 0.00 0.01 0.01 79 1012.1
20260509171413 79 313 2.6 2.6 0.00 0.01 0.01 82 1012.2
20260509170909 79 129 0.0 2.6 0.00 0.01 0.01 81 1012.2
20260509170404 78 284 1.7 2.6 0.00 0.01 0.01 82 1012.3
20260509165901 78 269 0.9 1.7 0.00 0.01 0.01 83 1012.1
20260509165355 77 215 1.7 1.7 0.00 0.01 0.01 84 1012.2
20260509164851 77 315 0.0 1.7 0.00 0.01 0.01 84 1012.4
20260509164347 77 261 0.9 1.7 0.00 0.01 0.01 84 1012.3
20260509163843 76 269 0.0 1.7 0.00 0.01 0.01 85 1012.4
20260509163340 76 222 3.5 3.5 0.00 0.01 0.01 85 1012.4
20260509162839 76 269 1.7 2.6 0.00 0.01 0.01 87 1012.2
20260509162338 75 208 1.7 1.7 0.00 0.01 0.01 88 1012.2
20260509161834 75 174 1.7 2.6 0.00 0.01 0.01 88 1012.2
20260509161331 75 171 1.7 1.7 0.00 0.01 0.01 88 1012.3
20260509160826 75 246 1.7 3.5 0.00 0.01 0.01 88 1012.2
20260509160322 75 189 1.7 1.7 0.00 0.01 0.01 88 1012.2
20260509155818 75 212 1.7 3.5 0.00 0.01 0.01 89 1012.2
20260509155314 74 184 1.7 3.5 0.00 0.01 0.01 90 1012.0
20260509154811 74 159 2.6 3.5 0.00 0.01 0.01 91 1012.1
20260509154308 73 178 1.7 3.5 0.00 0.01 0.01 92 1012.0
20260509153804 73 142 0.0 3.5 0.00 0.01 0.01 92 1012.1
20260509153300 73 170 1.7 2.6 0.00 0.01 0.01 93 1011.9
20260509152757 73 127 0.9 3.5 0.00 0.01 0.01 94 1012.0
20260509152253 73 165 1.7 4.3 0.00 0.01 0.01 94 1012.0
20260509151751 73 152 2.6 3.5 0.00 0.01 0.01 96 1012.0
20260509151247 73 181 2.6 3.5 0.00 0.01 0.01 97 1011.9
20260509150746 72 167 1.7 2.6 0.00 0.01 0.01 97 1012.0
20260509150244 72 320 0.0 3.5 0.00 0.01 0.01 97 1011.9
20260509145741 72 240 0.0 1.7 0.00 0.01 0.01 98 1011.9
20260509145240 71 159 2.6 3.5 0.00 0.01 0.01 98 1012.2
20260509144737 71 202 1.7 1.7 0.00 0.01 0.01 98 1012.1
20260509144234 71 230 0.0 1.7 0.00 0.01 0.01 98 1012.2
20260509143731 71 281 1.7 1.7 0.00 0.01 0.01 98 1012.1
20260509143228 71 242 0.0 1.7 0.00 0.01 0.01 98 1012.0
20260509142724 70 151 3.5 3.5 0.00 0.01 0.01 98 1012.2
20260509142221 70 151 1.7 1.7 0.00 0.01 0.01 98 1012.3
20260509141716 70 202 1.7 1.7 0.00 0.01 0.01 98 1012.3
20260509141214 70 205 0.9 1.7 0.00 0.01 0.01 98 1012.4
20260509140710 70 247 1.7 1.7 0.00 0.01 0.01 98 1012.2
20260509140208 70 269 1.7 2.6 0.00 0.01 0.01 98 1012.4
20260509135705 70 268 0.9 1.7 0.00 0.01 0.01 98 1012.4
20260509135203 70 268 0.9 1.7 0.00 0.01 0.01 98 1012.5
20260509134659 70 260 0.0 1.7 0.00 0.01 0.01 98 1012.4
20260509134157 69 280 0.0 0.9 0.00 0.01 0.01 98 1012.6
20260509133654 69 284 0.0 1.7 0.00 0.01 0.01 98 1012.4
20260509133151 69 282 0.9 1.7 0.00 0.01 0.01 98 1012.6
20260509132649 69 269 0.0 0.9 0.00 0.01 0.01 98 1012.5
20260509132147 69 307 0.9 1.7 0.00 0.01 0.01 98 1012.5
20260509131643 69 218 0.0 0.9 0.00 0.01 0.01 98 1012.5
20260509131140 69 333 0.0 1.7 0.00 0.01 0.01 98 1012.7
20260509130636 69 234 0.0 0.9 0.00 0.01 0.01 98 1012.5
20260509130132 69 240 0.0 1.7 0.00 0.01 0.01 98 1012.6
20260509125629 68 213 1.7 1.7 0.00 0.01 0.01 98 1012.6
20260509125126 68 231 1.7 2.6 0.00 0.01 0.01 98 1012.5
20260509124622 69 231 1.7 2.6 0.00 0.01 0.01 98 1012.7
20260509124119 68 262 1.7 2.6 0.00 0.01 0.01 98 1012.6
20260509123617 68 251 1.7 2.6 0.00 0.01 0.01 98 1012.3
20260509123114 68 254 1.7 2.6 0.00 0.01 0.01 98 1012.2
20260509122609 68 263 0.9 1.7 0.00 0.01 0.01 98 1012.2
20260509122107 68 200 1.7 1.7 0.00 0.01 0.01 98 1011.9
20260509121603 68 222 1.7 1.7 0.00 0.01 0.01 98 1012.1
20260509121101 68 221 0.0 1.7 0.00 0.01 0.01 98 1011.7
20260509120559 68 229 0.0 0.9 0.00 0.01 0.01 98 1011.8
20260509120057 68 204 0.9 1.7 0.00 0.01 0.01 98 1011.9
20260509115554 67 226 1.7 1.7 0.00 0.01 0.01 98 1011.8
20260509115052 67 227 0.0 0.9 0.00 0.01 0.01 98 1011.7
20260509114550 67 231 0.0 1.7 0.00 0.01 0.01 98 1011.9
20260509114048 68 283 0.0 1.7 0.00 0.01 0.01 98 1011.6
20260509113546 68 233 1.7 1.7 0.00 0.01 0.01 98 1011.4
20260509113044 68 213 1.7 1.7 0.00 0.01 0.01 98 1011.4
20260509112540 67 196 0.9 1.7 0.00 0.01 0.01 98 1011.3
20260509112037 67 210 0.0 1.7 0.00 0.01 0.01 98 1011.1
20260509111534 67 229 0.0 1.7 0.00 0.01 0.01 98 1011.0
20260509111031 67 215 0.9 1.7 0.00 0.01 0.01 97 1010.9
20260509110527 67 218 0.0 1.7 0.00 0.01 0.01 97 1010.7
20260509110025 67 247 0.0 0.9 0.00 0.01 0.01 97 1010.7
20260509105523 67 227 1.7 1.7 0.02 0.01 0.01 97 1010.7
20260509105020 66 142 0.0 0.0 0.02 0.01 0.01 97 1010.7
20260509104517 66 249 0.0 0.9 0.00 0.01 0.01 97 1010.9
20260509104014 66 231 0.0 0.9 0.00 0.01 0.01 97 1010.7
20260509103512 66 215 0.0 0.9 0.00 0.01 0.01 97 1011.0
20260509103010 66 231 0.9 1.7 0.00 0.01 0.01 97 1010.8
20260509102507 66 226 1.7 1.7 0.00 0.01 0.01 97 1010.7
20260509102004 66 204 0.0 0.9 0.00 0.01 0.01 97 1010.5
20260509101500 66 227 1.7 1.7 0.00 0.01 0.01 97 1010.7
20260509100957 66 224 1.7 1.7 0.00 0.01 0.01 97 1010.7
20260509100454 66 183 1.7 2.6 0.00 0.01 0.01 97 1010.8
20260509095951 65 153 2.6 3.5 0.00 0.01 0.01 97 1010.6
20260509095448 65 165 1.7 2.6 0.00 0.01 0.01 97 1010.9
20260509094945 65 152 3.5 4.3 0.00 0.01 0.01 97 1010.7
20260509094441 65 149 3.5 3.5 0.00 0.01 0.01 97 1010.7
20260509093939 65 190 1.7 2.6 0.00 0.01 0.01 97 1011.0
20260509093436 65 184 0.9 1.7 0.00 0.01 0.01 97 1010.9
20260509092934 65 180 0.9 1.7 0.00 0.01 0.01 97 1010.9
20260509092432 65 186 0.0 0.9 0.00 0.01 0.01 97 1010.8
20260509091930 65 228 0.9 0.9 0.00 0.01 0.01 97 1010.5
20260509091427 65 189 0.0 0.9 0.00 0.01 0.01 97 1010.7
20260509090924 65 315 0.0 1.7 0.00 0.01 0.01 97 1011.1
20260509090421 65 330 0.9 0.9 0.00 0.01 0.01 97 1010.7
20260509085919 64 185 0.9 1.7 0.00 0.01 0.01 96 1010.9
20260509085416 64 198 0.9 1.7 0.00 0.01 0.01 96 1011.3
20260509084912 64 191 1.7 1.7 0.00 0.01 0.01 96 1011.3
20260509084409 64 238 1.7 1.7 0.00 0.01 0.01 96 1011.1
20260509083906 64 253 1.7 1.7 0.00 0.01 0.01 96 1011.3
20260509083403 64 247 1.7 1.7 0.00 0.01 0.01 96 1011.3
20260509082900 64 213 0.9 1.7 0.00 0.01 0.01 96 1011.4
20260509082357 64 201 0.9 1.7 0.00 0.01 0.01 96 1011.3
20260509081854 64 224 0.9 1.7 0.00 0.01 0.01 96 1011.4
20260509081351 64 322 0.0 0.9 0.00 0.01 0.01 96 1011.0
20260509080849 64 274 0.0 1.7 0.00 0.01 0.01 96 1011.1
20260509080346 64 171 1.7 1.7 0.00 0.01 0.01 95 1011.0
20260509075844 64 208 1.7 2.6 0.00 0.01 0.01 95 1011.3
20260509075341 64 245 1.7 1.7 0.00 0.01 0.01 95 1011.1
20260509074838 64 267 0.9 1.7 0.00 0.01 0.01 95 1011.3
20260509074336 64 274 1.7 1.7 0.00 0.01 0.01 95 1011.3
20260509073832 64 236 2.6 3.5 0.00 0.01 0.01 95 1011.4
20260509073329 64 297 2.6 4.3 0.00 0.01 0.01 95 1011.7
20260509072825 64 312 1.7 2.6 0.00 0.01 0.01 95 1011.6
20260509072322 64 339 2.6 2.6 0.00 0.01 0.01 95 1011.5
20260509071819 64 156 0.0 2.6 0.00 0.01 0.01 95 1011.3
20260509071316 64 194 2.6 6.1 0.00 0.01 0.01 95 1011.4
20260509070813 64 217 2.6 3.5 0.00 0.01 0.01 95 1011.6
20260509070309 64 259 1.7 3.5 0.00 0.01 0.01 95 1011.9
20260509065806 64 222 2.6 3.5 0.00 0.01 0.01 95 1011.7
20260509065305 64 207 1.7 1.7 0.00 0.01 0.01 94 1011.8
20260509064758 64 324 0.0 1.7 0.00 0.01 0.01 94 1011.8
20260509064255 64 193 0.0 1.7 0.00 0.01 0.01 94 1011.9
20260509063753 65 193 0.0 2.6 0.00 0.01 0.01 94 1011.8
20260509063249 65 233 2.6 5.2 0.00 0.01 0.01 94 1011.8
20260509062747 65 206 2.6 4.3 0.00 0.01 0.01 94 1011.2
20260509062243 65 214 3.5 5.2 0.00 0.01 0.01 95 1011.4
20260509061740 65 210 6.1 8.7 0.02 0.01 0.01 95 1011.7
20260509061238 65 145 2.6 4.3 0.02 0.01 0.01 95 1011.4
20260509060735 65 175 5.2 8.7 0.09 0.00 0.00 95 1011.2
20260509060232 65 165 7.0 9.6 0.45 0.00 0.00 95 1011.0
20260509055727 66 206 7.0 11.3 0.78 0.35 0.35 95 1011.8
20260509055224 66 129 4.3 11.3 0.66 0.30 0.30 94 1012.0
20260509054720 66 144 4.3 5.2 0.66 0.22 0.22 93 1013.3
20260509054217 66 129 2.6 4.3 0.76 0.19 0.19 93 1013.9
20260509053716 66 183 3.5 5.2 0.28 0.10 0.10 92 1014.3
20260509053212 67 257 2.6 3.5 0.09 0.07 0.07 90 1013.8
20260509052710 67 151 1.7 1.7 0.07 0.06 0.06 89 1013.5
20260509052208 67 180 1.7 3.5 0.19 0.05 0.05 88 1012.9
20260509051705 68 120 1.7 5.2 0.26 0.04 0.04 86 1013.3
20260509051203 69 99 1.7 7.0 0.05 0.01 0.01 83 1013.3
20260509050700 69 268 4.3 5.2 0.00 0.00 0.00 82 1013.7
20260509050156 69 21 1.7 1.7 0.00 0.00 0.00 81 1012.9
20260509045653 69 209 0.0 0.9 0.00 0.00 0.00 81 1012.6
20260509045150 69 137 2.6 3.5 0.00 0.00 0.00 81 1012.5
20260509044647 69 196 0.0 1.7 0.00 0.00 0.00 81 1012.7
20260509044145 69 36 0.9 2.6 0.00 0.00 0.00 80 1012.6
20260509043641 69 217 0.0 0.9 0.00 0.00 0.00 80 1012.5
20260509043137 69 152 0.9 1.7 0.00 0.00 0.00 80 1012.2
20260509042634 69 151 1.7 2.6 0.00 0.00 0.00 80 1012.3
20260509042129 69 145 3.5 4.3 0.00 0.00 0.00 80 1012.1
20260509041626 69 139 1.7 1.7 0.00 0.00 0.00 80 1011.9
20260509041124 69 150 0.0 0.9 0.00 0.00 0.00 80 1012.0
20260509040622 69 136 0.9 1.7 0.00 0.00 0.00 80 1012.3
20260509040119 69 162 0.9 1.7 0.00 0.00 0.00 79 1012.1
20260509035615 69 129 0.0 0.9 0.00 0.00 0.00 79 1012.2
20260509035112 69 142 0.0 1.7 0.00 0.00 0.00 79 1012.0
20260509034610 69 106 1.7 3.5 0.00 0.00 0.00 79 1011.7
20260509034107 69 137 4.3 5.2 0.00 0.00 0.00 78 1011.8
20260509033604 70 148 2.6 4.3 0.00 0.00 0.00 79 1011.7
20260509033101 70 127 1.7 3.5 0.00 0.00 0.00 78 1011.8
20260509032558 70 180 0.0 1.7 0.00 0.00 0.00 78 1011.7
20260509032055 70 133 1.7 3.5 0.00 0.00 0.00 78 1011.7
20260509031553 70 148 3.5 7.0 0.00 0.00 0.00 78 1011.4
20260509031050 70 140 4.3 7.0 0.00 0.00 0.00 78 1011.4
20260509030548 70 144 2.6 4.3 0.00 0.00 0.00 79 1011.5
20260509030044 70 141 1.7 3.5 0.00 0.00 0.00 79 1011.6
20260509025541 70 144 1.7 2.6 0.00 0.00 0.00 79 1011.5
20260509025036 70 143 2.6 3.5 0.00 0.00 0.00 79 1011.4
20260509024532 70 154 1.7 4.3 0.00 0.00 0.00 79 1011.5
20260509024029 70 138 1.7 3.5 0.00 0.00 0.00 79 1011.2
20260509023527 70 143 3.5 5.2 0.00 0.00 0.00 78 1011.1
20260509023023 70 139 3.5 5.2 0.00 0.00 0.00 78 1011.2
20260509022520 70 142 2.6 3.5 0.00 0.00 0.00 78 1011.2
20260509022018 70 142 3.5 4.3 0.00 0.00 0.00 78 1011.2
20260509021514 70 140 0.0 3.5 0.00 0.00 0.00 78 1010.8
20260509021011 70 121 3.5 4.3 0.00 0.00 0.00 78 1011.0
20260509020510 70 158 6.1 8.7 0.00 0.00 0.00 78 1010.7
20260509020006 69 129 4.3 4.3 0.00 0.00 0.00 79 1010.7
20260509015505 69 145 1.7 2.6 0.00 0.00 0.00 79 1010.9
20260509015002 69 130 0.9 2.6 0.00 0.00 0.00 80 1010.6
20260509014459 69 132 0.0 0.0 0.00 0.00 0.00 78 1010.7
20260509013954 69 156 0.0 1.7 0.00 0.00 0.00 77 1010.5
20260509013452 69 156 1.7 2.6 0.00 0.00 0.00 78 1010.6
20260509012947 69 152 1.7 2.6 0.00 0.00 0.00 79 1010.3
20260509012444 70 141 1.7 2.6 0.00 0.00 0.00 78 1010.2
20260509011941 70 146 0.9 0.9 0.00 0.00 0.00 77 1010.3
20260509011439 71 37 0.0 0.9 0.00 0.00 0.00 77 1010.3
20260509010936 71 195 0.0 0.9 0.00 0.00 0.00 75 1010.1
20260509010434 72 148 0.0 0.9 0.00 0.00 0.00 75 1010.1
20260509005931 72 217 0.0 0.0 0.00 0.00 0.00 73 1010.0
20260509005429 73 139 1.7 3.5 0.00 0.00 0.00 72 1010.0
20260509004928 73 139 2.6 2.6 0.00 0.00 0.00 71 1009.8
20260509004425 73 180 0.9 1.7 0.00 0.00 0.00 72 1010.2
20260509003923 74 163 1.7 2.6 0.00 0.00 0.00 72 1010.2
20260509003421 74 150 1.7 1.7 0.00 0.00 0.00 71 1010.3
20260509002917 75 174 0.9 1.7 0.00 0.00 0.00 69 1010.3
20260509002416 75 322 0.0 1.7 0.00 0.00 0.00 68 1010.4
20260509001912 76 180 0.0 0.9 0.00 0.00 0.00 65 1010.3
20260509001409 76 196 0.0 1.7 0.00 0.00 0.00 65 1010.6
20260509000906 77 158 0.0 0.9 0.00 0.00 0.00 63 1010.5
20260509000404 78 355 1.7 1.7 0.00 0.00 0.00 63 1010.5
20260508235859 77 206 0.0 1.7 0.00 0.00 0.00 61 1010.4
20260508235357 76 211 0.9 1.7 0.00 0.00 0.00 63 1010.3
20260508234854 77 170 1.7 3.5 0.00 0.00 0.00 62 1010.2
20260508234350 76 200 1.7 5.2 0.00 0.00 0.00 65 1009.8
20260508233849 76 150 4.3 9.6 0.00 0.00 0.00 64 1009.6
20260508233348 75 161 3.5 7.8 0.00 0.00 0.00 65 1009.2
20260508232844 74 142 4.3 6.1 0.00 0.00 0.00 66 1009.0
20260508232340 74 149 5.2 8.7 0.00 0.00 0.00 65 1008.9
20260508231839 74 160 5.2 13.0 0.00 0.00 0.00 64 1008.8
20260508231335 74 139 11.3 13.9 0.00 0.00 0.00 64 1008.5
20260508230832 74 136 4.3 5.2 0.00 0.00 0.00 65 1009.0
20260508230328 75 146 1.7 4.3 0.00 0.00 0.00 62 1010.8
20260508225826 74 195 2.6 5.2 0.00 0.00 0.00 65 1010.9
20260508225322 75 125 6.1 8.7 0.00 0.00 0.00 63 1010.0
20260508224820 75 140 0.9 1.7 0.00 0.00 0.00 61 1010.5
20260508224318 76 143 3.5 3.5 0.00 0.00 0.00 62 1010.9
20260508223815 76 163 1.7 3.5 0.00 0.00 0.00 62 1011.2
20260508223312 76 147 1.7 1.7 0.00 0.00 0.00 61 1010.8
20260508222810 76 161 1.7 3.5 0.00 0.00 0.00 62 1011.5
20260508222307 76 161 2.6 3.5 0.00 0.00 0.00 61 1011.6
20260508221803 77 187 2.6 4.3 0.00 0.00 0.00 56 1011.5
20260508221259 77 180 1.7 3.5 0.00 0.00 0.00 56 1011.5
20260508220755 77 186 3.5 4.3 0.00 0.00 0.00 55 1011.3
20260508220252 77 175 3.5 4.3 0.00 0.00 0.00 54 1011.1
20260508215748 78 132 5.2 5.2 0.00 0.00 0.00 53 1011.1
20260508215245 78 143 5.2 7.0 0.00 0.00 0.00 51 1011.0
20260508214742 78 147 1.7 4.3 0.00 0.00 0.00 53 1011.0
20260508214239 78 146 3.5 5.2 0.00 0.00 0.00 50 1011.0
20260508213736 78 162 3.5 5.2 0.00 0.00 0.00 54 1010.9
20260508213233 78 141 3.5 6.1 0.00 0.00 0.00 53 1010.9
20260508212729 79 146 3.5 7.0 0.00 0.00 0.00 51 1011.1
20260508212225 79 161 5.2 5.2 0.00 0.00 0.00 52 1010.9
20260508211721 79 152 1.7 2.6 0.00 0.00 0.00 52 1011.1
20260508211217 79 155 1.7 3.5 0.00 0.00 0.00 52 1011.1
20260508210715 79 151 4.3 6.1 0.00 0.00 0.00 51 1011.0
20260508210212 80 157 2.6 4.3 0.00 0.00 0.00 51 1011.0
20260508205708 80 168 1.7 6.1 0.00 0.00 0.00 51 1011.1
20260508205205 81 105 2.6 3.5 0.00 0.00 0.00 49 1011.2
20260508204701 80 158 2.6 4.3 0.00 0.00 0.00 47 1011.3
20260508204157 80 139 2.6 4.3 0.00 0.00 0.00 47 1011.2
20260508203653 79 153 2.6 6.1 0.00 0.00 0.00 47 1011.4
20260508203150 79 130 8.7 9.6 0.00 0.00 0.00 47 1011.4
20260508202646 80 189 3.5 7.8 0.00 0.00 0.00 45 1011.6
20260508202144 79 168 5.2 7.8 0.00 0.00 0.00 49 1011.2
20260508201640 78 155 3.5 8.7 0.00 0.00 0.00 50 1011.3